x

Virginia Beach 64 Nm East Of Virginia Beach, Va (44014) Wave Buoy

12:50 - Wed 30th Jul 2014 All times are EDT. -4 hours from GMT.

  • Sig Wave height 2.3ft
  • Peak Period 8s
  • Wind
    11mph, 13mph gusts
  • Sea Temp 78°f
  • Ar Temp 74°f
  • Sea Pressure 1018.1mb
  • Virginia Beach 64 Nm East Of Virginia Beach, Va
  • Virginia Beach 64 Nm East Of Virginia Beach, Va

More Historic Weather Station data

Upgrade to MSW Pro to gain access to the past 30 days of data for over 8000 Wavebouys and Weather Stations around the globe.

Join Pro

Comparision Forecast

View Surf forecast
   
Qua 07/30 12:50 2.5ft 8s 11 13 mph 1018.1mb 78f 74f
11:50 2.5ft 8s 11 13 mph 1018.2mb 78f 74f
10:50 2.5ft 8s 9 11 mph 1018mb 78f 74f
9:50 2.5ft 8s 11 13 mph 1017.6mb 78f 74f
8:50 2.5ft 8s 11 13 mph 1017.1mb 78f 75f
7:50 2.5ft 9s 11 13 mph 1016.6mb 78f 74f
6:50 2.5ft 7s 11 16 mph 1016.1mb 78f 74f
5:50 2.5ft 7s 9 11 mph 1015.6mb 78f 74f
4:50 2.5ft 8s 11 13 mph 1015.2mb 78f 74f
3:50 2.5ft 8s 9 13 mph 1014.8mb 78f 75f
2:50 2ft 7s 9 11 mph 1014.7mb 78f 75f
1:50 2.5ft 8s 7 9 mph 1014.9mb 78f 74f
12:50 2.5ft 8s 7 9 mph 1015.2mb 78f 75f
Ter 07/29 11:50 2ft 8s 9 11 mph 1015.4mb 78f 75f
10:50 2.5ft 8s 9 11 mph 1015.6mb 78f 74f
9:50 2.5ft 7s 11 13 mph 1015.2mb 78f 74f
8:50 2.5ft 8s 11 13 mph 1014.5mb 79f 74f
7:50 2ft 8s 11 13 mph 1014mb 79f 74f
6:50 2.5ft 8s 9 13 mph 1014mb 79f 74f
5:50 2.5ft 8s 9 11 mph 1014mb 79f 74f
4:50 2.5ft 7s 11 13 mph 1013mb 79f 74f
3:50 2.5ft 8s 11 13 mph 1012.9mb 79f 74f
2:50 2.5ft 5s 9 11 mph 1013.4mb 79f 74f
1:50 2.5ft 7s 9 13 mph 1013.1mb 78f 74f
12:50 3ft 8s 9 11 mph 1012.9mb 78f 74f
11:50 3.5ft 5s 11 13 mph 1012.3mb 79f 74f
10:50 3ft 5s 9 13 mph 1012.1mb 78f 74f
9:50 3.5ft 5s 11 13 mph 1011.9mb 78f 74f
8:50 3.5ft 5s 13 16 mph 1011.5mb 78f 74f
7:50 3.5ft 5s 13 18 mph 1011.1mb 78f 74f
6:50 3.5ft 5s 16 18 mph 1010.6mb 78f 74f
5:50 3ft 5s 13 16 mph 1010.4mb 78f 75f
4:50 3ft 4s 13 18 mph 1009.6mb 78f 76f
3:50 3.5ft 4s 16 20 mph 1009.3mb 78f 76f
2:50 3.5ft 4s 18 20 mph 1008.7mb 78f 78f
1:50 3.5ft 4s 13 18 mph 1009.1mb 78f 79f
12:50 3.5ft 6s 13 16 mph 1008.7mb 78f 80f
Seg 07/28 11:50 4.5ft 7s 13 16 mph 1008.4mb 78f 80f
10:50 4ft 7s 16 20 mph 1007.4mb 78f 80f
9:50 4ft 6s 11 13 mph 1007.8mb 78f 80f
8:50 4ft 6s 13 16 mph 1007.7mb 78f 81f
7:50 4ft 7s 11 16 mph 1007.3mb 79f 80f
6:50 3.5ft 7s 11 13 mph 1006.5mb 79f 81f
5:50 4ft 7s 13 16 mph 1006.2mb 79f 81f
4:50 4ft 7s 13 16 mph 1006.2mb 79f 81f
3:50 4.5ft 7s 18 20 mph 1005.9mb 79f 81f
2:50 4.5ft 7s 18 22 mph 1005.6mb 78f 81f
1:50 5ft 7s 20 22 mph 1005.5mb 78f 81f
12:50 5ft 6s 20 25 mph 1005.3mb 78f 80f
11:50 5ft 7s 18 22 mph 1005.7mb 78f 80f
10:50 5ft 6s 18 20 mph 1005.5mb 78f 80f
9:50 5ft 6s 20 25 mph 1005.2mb 78f 81f
8:50 4.5ft 6s 22 25 mph 1004.9mb 78f 80f
7:50 4.5ft 5s 22 27 mph 1004.6mb 78f 80f
6:50 4ft 5s 22 25 mph 1004.6mb 78f 80f
5:50 4ft 5s 22 27 mph 1004.2mb 78f 80f
4:50 3.5ft 5s 22 27 mph 1004.3mb 78f 80f
3:50 3.5ft 5s 22 27 mph 1004.3mb 78f 80f
2:50 3ft 5s 20 25 mph 1005.3mb 78f 80f
1:50 2.5ft 5s 16 20 mph 1006.4mb 78f 79f
12:50 3ft 4s 13 16 mph 1007.4mb 78f 79f
Dom 07/27 11:50 2.5ft 4s 16 18 mph 1008.1mb 78f 79f
10:50 2.5ft 11s 13 16 mph 1008.3mb 78f 79f
9:50 2.5ft 4s 16 18 mph 1008.7mb 78f 80f
8:50 2.5ft 5s 16 18 mph 1008.5mb 78f 80f
7:50 2.5ft 5s 9
mph
1008.4mb 79f 79f
6:50 2.5ft 4s 11 13 mph 1008.5mb 79f 79f
5:50 2.5ft 5s 7 9 mph 1008.9mb 79f 80f
4:50 2.5ft 4s 7 9 mph 1009.1mb 79f 80f
3:50 2.5ft 4s 9
mph
1010mb 79f 79f
2:50 2.5ft 4s 11 13 mph 1010.9mb 78f 80f
1:50 2.5ft 8s 16 18 mph 1011.2mb 78f 80f
12:50 2.5ft 3s 20 22 mph 1009.9mb 78f 79f
11:50 2.5ft 6s 13 16 mph 1011.2mb 78f 79f
10:50 2.5ft 6s 13 16 mph 1011.7mb 78f 79f
9:50 2.5ft 7s 13 16 mph 1012.3mb 78f 79f
8:50 2.5ft 8s 13 16 mph 1012.5mb 78f 79f
7:50 2.5ft 7s 16 18 mph 1012.7mb 78f 79f
6:50 2ft 7s 13 16 mph 1012.5mb 78f 78f
5:50 2ft 6s 13 16 mph 1012.3mb 78f 78f
4:50 2ft 8s 13 16 mph 1012.3mb 78f 78f
3:50 2ft 6s 16 18 mph 1012.4mb 78f 78f
2:50 2ft 7s 13 16 mph 1012.6mb 78f 78f
1:50 2.5ft 7s 13 16 mph 1013.1mb 78f 78f
12:50 2.5ft 7s 13 16 mph 1013.7mb 78f 78f
Sáb 07/26 11:50 2ft 7s 13 16 mph 1014.2mb 78f 79f
10:50 2ft 8s 13 16 mph 1014.5mb 78f 78f
9:50 1.6ft 6s 11 13 mph 1014.9mb 78f 78f
8:50 2ft 7s 11 13 mph 1014.1mb 78f 78f
7:50 2ft 8s 11 13 mph 1013.7mb 78f 78f
6:50 1.6ft 7s 9 11 mph 1014.7mb 78f 78f